Weather History for Cleveland Burke, OH

Change the Weather History Date:

Monday, December 10, 2012

  Actual Average Record
Temperature  
Mean Temperature 46 °F -  
Max Temperature 55 °F 41 °F 55 °F (2012)
Min Temperature 36 °F 31 °F 23 °F (2005)
Degree Days  
Heating Degree Days 20    
Moisture  
Dew Point 40 °F    
Average Humidity 88    
Maximum Humidity 100    
Minimum Humidity 76    
Precipitation  
Precipitation 0.20 in - - ()
Sea Level Pressure  
Sea Level Pressure 29.66 in    
Wind  
Wind Speed 13 mph (West)    
Max Wind Speed 21 mph    
Max Gust Speed 31 mph    
Visibility 7 miles    
Events Rain    
Averages and records for this station are not official NWS values.
T = Trace of Precipitation, MM = Missing Value Source: NWS Daily Summary

Daily Weather History Graph

Daily Weather History Graph

Search for Another Location

Airport:

Trip Planner

Search our weather history database for the weather conditions in past years. The results will help you decide how hot, cold, wet, or windy it might be!

Date:

Astronomy

Dec. 10, 2012 Rise Set
Actual Time 7:42 AM EST 4:56 PM EST
Civil Twilight 7:11 AM EST 5:28 PM EST
Nautical Twilight 6:36 AM EST 6:02 PM EST
Astronomical Twilight 6:02 AM EST 6:36 PM EST
Moon 4:23 AM EST (12/10) 2:46 PM EST (12/10)
Length of Visible Light 10h 16m
Length of Day
9h 14m
Waning Crescent, 10% of the Moon is Illuminated
Dec 10
Waning Crescent
Dec 13
New
Dec 20
First Quarter
Dec 28
Full
Jan 4
Last Quarter

Hourly Weather History & Observations

Time (EST) Temp. Windchill Dew Point Humidity Pressure Visibility Wind Dir Wind Speed Gust Speed Precip Events Conditions
12:53 AM 55.0 °F - 53.1 °F 93% 29.63 in 6.0 mi South 8.1 mph - 0.04 in Rain Light Rain
1:53 AM 55.0 °F - 53.1 °F 93% 29.61 in 10.0 mi South 8.1 mph - 0.07 in Rain Light Rain
2:53 AM 55.9 °F - 52.0 °F 87% 29.58 in 10.0 mi South 11.5 mph - 0.01 in   Overcast
3:10 AM 55.4 °F - 51.8 °F 88% 29.58 in 10.0 mi South 15.0 mph - N/A   Overcast
3:48 AM 51.8 °F - 48.2 °F 88% 29.60 in 8.0 mi West 20.7 mph 31.1 mph 0.00 in Rain Light Rain
3:53 AM 48.0 °F - 46.0 °F 93% 29.60 in 8.0 mi West 17.3 mph 31.1 mph 0.00 in Rain Light Rain
4:00 AM 48.2 °F - 46.4 °F 93% 29.60 in 6.0 mi West 18.4 mph - 0.00 in   Overcast
4:10 AM 46.4 °F 39.5 °F 44.6 °F 93% 29.61 in 3.0 mi West 17.3 mph - 0.00 in   Overcast
4:25 AM 46.4 °F 41.1 °F 44.6 °F 93% 29.61 in 2.5 mi WSW 11.5 mph - 0.00 in   Overcast
4:53 AM 45.0 °F 38.9 °F 44.1 °F 97% 29.62 in 2.5 mi WSW 12.7 mph - 0.00 in   Overcast
5:01 AM 44.6 °F 38.8 °F 44.6 °F 100% 29.62 in 4.0 mi WSW 11.5 mph - N/A   Overcast
5:53 AM 44.1 °F 38.1 °F 43.0 °F 96% 29.63 in 5.0 mi West 11.5 mph - 0.02 in Rain Light Rain
7:35 AM 44.6 °F 40.2 °F 42.8 °F 93% 29.64 in 5.0 mi West 8.1 mph - 0.01 in Rain Light Rain
7:53 AM 44.1 °F 39.0 °F 42.1 °F 93% 29.65 in 6.0 mi WNW 9.2 mph - 0.02 in   Overcast
8:20 AM 44.6 °F 39.2 °F 42.8 °F 93% 29.65 in 6.0 mi West 10.4 mph - N/A   Overcast
8:49 AM 44.6 °F 39.2 °F 42.8 °F 93% 29.65 in 1.2 mi West 10.4 mph - N/A   Overcast
8:53 AM 44.1 °F 38.6 °F 42.1 °F 93% 29.66 in 1.0 mi West 10.4 mph - N/A   Overcast
9:20 AM 42.8 °F 37.5 °F 42.8 °F 100% 29.66 in 1.0 mi West 9.2 mph - N/A   Overcast
9:53 AM 43.0 °F 35.4 °F 41.0 °F 93% 29.67 in 1.2 mi West 16.1 mph - N/A   Overcast
10:34 AM 42.8 °F 34.8 °F 39.2 °F 87% 29.66 in 1.2 mi West 17.3 mph 24.2 mph N/A   Overcast
10:50 AM 41.0 °F 31.6 °F 39.2 °F 93% 29.66 in 3.0 mi West 20.7 mph - N/A   Overcast
10:53 AM 41.0 °F 31.6 °F 39.0 °F 93% 29.67 in 3.0 mi West 20.7 mph - N/A   Overcast
11:53 AM 41.0 °F 31.9 °F 37.9 °F 89% 29.65 in 6.0 mi West 19.6 mph - N/A   Overcast
12:22 PM 41.0 °F 32.2 °F 37.4 °F 87% 29.64 in 10.0 mi West 18.4 mph - N/A   Overcast
12:53 PM 41.0 °F 32.8 °F 36.0 °F 82% 29.65 in 10.0 mi West 16.1 mph - N/A   Overcast
1:53 PM 41.0 °F 32.8 °F 35.1 °F 79% 29.65 in 10.0 mi West 16.1 mph - N/A   Overcast
2:41 PM 41.0 °F 32.2 °F 35.6 °F 81% 29.63 in 10.0 mi West 18.4 mph - N/A   Overcast
2:53 PM 41.0 °F 33.5 °F 35.1 °F 79% 29.65 in 10.0 mi West 13.8 mph - N/A   Overcast
3:53 PM 41.0 °F 33.1 °F 35.1 °F 79% 29.68 in 10.0 mi West 15.0 mph - N/A   Overcast
4:53 PM 41.0 °F 32.8 °F 35.1 °F 79% 29.70 in 10.0 mi West 16.1 mph - N/A   Overcast
5:06 PM 41.0 °F 32.8 °F 35.6 °F 81% 29.69 in 10.0 mi West 16.1 mph - N/A   Overcast
5:41 PM 41.0 °F 33.1 °F 35.6 °F 81% 29.69 in 10.0 mi WNW 15.0 mph - 0.01 in Rain Light Rain
5:53 PM 39.0 °F 32.3 °F 34.0 °F 82% 29.71 in 9.0 mi NW 10.4 mph - 0.01 in Rain Light Rain
6:53 PM 39.9 °F 32.9 °F 35.1 °F 83% 29.73 in 9.0 mi NNW 11.5 mph - 0.00 in Rain Light Rain
7:37 PM 39.2 °F 32.0 °F 35.6 °F 87% 29.74 in 7.0 mi NNW 11.5 mph - 0.02 in Rain Light Rain
7:53 PM 37.9 °F 30.0 °F 34.0 °F 86% 29.75 in 8.0 mi NNW 12.7 mph - 0.03 in Rain Light Rain
8:53 PM 37.0 °F 28.1 °F 33.1 °F 86% 29.77 in 10.0 mi NNW 15.0 mph - 0.00 in   Overcast
9:02 PM 37.4 °F 28.2 °F 32.0 °F 81% 29.76 in 10.0 mi NNW 16.1 mph - 0.00 in   Overcast
9:53 PM 36.0 °F 26.7 °F 30.0 °F 79% 29.80 in 10.0 mi NNW 15.0 mph - 0.00 in   Overcast
10:53 PM 36.0 °F 28.5 °F 28.9 °F 76% 29.83 in 10.0 mi NNW 10.4 mph - 0.00 in   Overcast